Location: Unnamed
(51.5169°N, 0.1311°W)
Time: 05:33:25
(UTC+01:00)

CUBEBUG 2 - Visible Passes

Search period start: 14 May 2026 00:00
Search period end: 24 May 2026 00:00
Orbit: 546 x 628 km, 97.9° (Epoch: 13 May)

Date Brightness Start Highest point End Pass type
(mag) Time Alt. Az. Time Alt. Az. Time Alt. Az.
14 May ? 02:16:58 10° ENE 02:18:50 13° E 02:20:43 10° ESE visible
14 May ? 03:50:51 10° N 03:54:48 72° WNW 03:58:30 11° SSW visible
15 May ? 02:23:39 10° NE 02:26:01 15° E 02:28:21 10° SE visible
15 May ? 03:57:58 10° N 04:01:53 60° WNW 04:05:42 10° SSW visible
16 May ? 02:30:27 10° NE 02:33:09 18° E 02:35:51 10° SE visible
16 May ? 04:05:05 10° N 04:08:56 51° WNW 04:12:45 10° SW visible
17 May ? 02:37:18 10° NE 02:40:18 20° E 02:43:16 10° SE visible
17 May ? 04:12:12 10° N 04:15:59 43° WNW 04:19:43 10° SW visible
18 May ? 02:44:11 10° NE 02:47:25 24° E 02:50:37 10° SSE visible
18 May ? 04:19:21 10° N 04:23:01 37° WNW 04:26:39 10° SW visible
19 May ? 02:51:08 10° NE 02:54:32 27° E 02:57:56 10° SSE visible
20 May ? 02:58:04 10° NNE 03:01:39 32° E 03:05:12 10° SSE visible
21 May ? 03:05:03 10° NNE 03:08:45 37° E 03:12:26 10° SSE visible
22 May ? 03:12:02 10° NNE 03:15:50 44° E 03:19:38 10° S visible
23 May ? 03:19:02 10° NNE 03:22:55 52° E 03:26:47 10° S visible
